Tracking 19192 objects as of 18-Jun-2018
HD Live streaming from Space Station
objects crossing your sky now

FENGYUN 1C DEB

Track FENGYUN 1C DEB now!
10-day predictions


NORAD ID: 31611
Int'l Code: 1999-025BZR
Perigee: 708.8 km
Apogee: 867.2 km
Inclination: 99.0 °
Period: 100.5 minutes
Semi major axis: 7159 km
RCS: 0.0063 m2 (small)
Launch date: May 10, 1999
Source: People's Republic of China (PRC)
Launch site: Taiyaun Space Center, China (TSC)

Note: This is SATELLITE DEBRIS
aabbcc
Your satellite tracking list
Your tracking list is empty




NASA's NSSDC Master Catalog

Two Line Element Set (TLE):
1 31611U 99025BZR 18168.26564304 +.00001008 +00000-0 +35873-3 0  9999
2 31611 098.9747 284.5553 0110603 031.5603 359.0904 14.33251187277538
Source of the keplerian elements: AFSPC